Goldsboro, NC

12:35 AM EDT on June 25, 2018 (GMT -0400)
Seymour Johnson Air Force Base

Weather History for KGSB - August, 2017

Change the Weather History Date:

Sunday, August 13, 2017

  Actual Average Record
Temperature  
Mean Temperature 80 °F -  
Max Temperature 86 °F 87 °F 98 °F (1997)
Min Temperature 75 °F 68 °F 60 °F (2006)
Cooling Degree Days 16    
Growing Degree Days 30 (Base 50)    
Moisture  
Dew Point 75 °F    
Average Humidity 87    
Maximum Humidity 100    
Minimum Humidity 70    
Precipitation  
Precipitation 0.10 in - - ()
Sea Level Pressure  
Sea Level Pressure 29.95 in    
Wind  
Wind Speed 4 mph (NNW)    
Max Wind Speed 12 mph    
Max Gust Speed -    
Visibility 8 miles    
Events Rain , Thunderstorm    
Averages and records for this station are not official NWS values.
T = Trace of Precipitation, MM = Missing Value Source: NWS Daily Summary

Daily Weather History Graph

Daily Weather History Graph

Search for Another Location

Airport or City:

Astronomy

Aug. 13, 2017 Rise Set
Actual Time 6:30 AM EDT 8:02 PM EDT
Civil Twilight 6:02 AM EDT 8:29 PM EDT
Nautical Twilight 5:30 AM EDT 9:02 PM EDT
Astronomical Twilight 4:56 AM EDT 9:36 PM EDT
Moon 11:49 PM EDT (8/13) 12:14 PM EDT (8/13)
Length of Visible Light 14h 26m
Length of Day
13h 32m
Waning Gibbous, 65% of the Moon is Illuminated
Aug 13
Waning Gibbous
Aug 14
Last Quarter
Aug 21
New
Aug 29
First Quarter
Sep 6
Full

Hourly Weather History & Observations

Time (EDT) Temp. Heat Index Dew Point Humidity Pressure Visibility Wind Dir Wind Speed Gust Speed Precip Events Conditions
12:57 AM 75.4 °F - 72.1 °F 90% 29.91 in 10.0 mi West 1.2 mph - N/A   Scattered Clouds
1:58 AM 75.7 °F - 73.0 °F 91% 29.91 in 8.0 mi WNW 3.5 mph - 0.03 in Rain Light Rain Showers
2:10 AM 75.6 °F - 72.9 °F 91% 29.90 in 6.0 mi NW 1.2 mph - 0.03 in   Mostly Cloudy
2:58 AM 75.7 °F - 73.2 °F 92% 29.91 in 6.0 mi West 2.3 mph - N/A   Mostly Cloudy
3:58 AM 75.9 °F - 73.6 °F 92% 29.91 in 5.0 mi WNW 2.3 mph - N/A   Mostly Cloudy
4:58 AM 76.6 °F - 73.6 °F 90% 29.90 in 10.0 mi Variable 2.3 mph - N/A   Mostly Cloudy
5:55 AM 75.2 °F - 75.2 °F 100% 29.92 in 10.0 mi West 4.6 mph - N/A   Partly Cloudy
6:58 AM 75.2 °F - 75.2 °F 100% 29.92 in 7.0 mi Variable 6.9 mph - N/A   Mostly Cloudy
7:55 AM 76.5 °F - 73.2 °F 90% 29.93 in 7.0 mi WSW 3.5 mph - N/A   Mostly Cloudy
8:56 AM 78.8 °F - 78.8 °F 100% 29.94 in 10.0 mi WSW 2.3 mph - N/A   Overcast
9:55 AM 80.6 °F 89.3 °F 80.6 °F 100% 29.96 in 7.0 mi West 2.3 mph - N/A   Overcast
10:56 AM 84.2 °F 98.3 °F 80.6 °F 89% 29.97 in 7.0 mi WSW 6.9 mph - N/A   Mostly Cloudy
11:56 AM 84.2 °F 98.3 °F 80.6 °F 89% 29.96 in 7.0 mi Variable 6.9 mph - N/A   Overcast
11:59 AM 84.2 °F 98.3 °F 80.6 °F 89% 29.96 in 7.0 mi Variable 6.9 mph - N/A   Overcast
1:01 PM 86.0 °F 101.9 °F 80.6 °F 84% 29.95 in 7.0 mi North 8.1 mph - N/A   Overcast
1:57 PM 83.5 °F 91.2 °F 75.2 °F 76% 29.94 in 7.0 mi NE 8.1 mph - N/A   Mostly Cloudy
2:19 PM 78.8 °F - 75.2 °F 89% 29.96 in 3.0 mi North 11.5 mph - N/A Rain Heavy Rain Showers
2:44 PM 80.6 °F 86.2 °F 75.2 °F 84% 29.94 in 10.0 mi NE 8.1 mph - N/A Rain , Thunderstorm Light Rain Showers
2:55 PM 80.6 °F 86.2 °F 75.2 °F 84% 29.95 in 10.0 mi NE 10.4 mph - 0.04 in   Mostly Cloudy
3:55 PM 84.2 °F 90.9 °F 73.4 °F 70% 29.95 in 10.0 mi NNE 6.9 mph - N/A   Scattered Clouds
4:55 PM 82.4 °F 88.2 °F 73.4 °F 74% 29.96 in 10.0 mi NNE 6.9 mph - N/A   Mostly Cloudy
5:55 PM 82.4 °F 88.2 °F 73.4 °F 74% 29.96 in 10.0 mi NNE 5.8 mph - N/A   Mostly Cloudy
6:55 PM 80.6 °F 85.4 °F 73.4 °F 79% 29.96 in 10.0 mi NNE 5.8 mph - N/A   Mostly Cloudy
7:55 PM 79.2 °F - 72.0 °F 78% 29.98 in 10.0 mi NNE 3.5 mph - N/A   Mostly Cloudy
8:57 PM 78.3 °F - 71.6 °F 80% 29.97 in 10.0 mi NE 5.8 mph - N/A   Mostly Cloudy
9:57 PM 77.5 °F - 71.4 °F 81% 30.00 in 10.0 mi NE 5.8 mph - N/A   Mostly Cloudy
10:58 PM 77.0 °F - 71.8 °F 84% 30.00 in 10.0 mi Variable 2.3 mph - N/A   Overcast
11:58 PM 76.6 °F - 72.1 °F 86% 30.00 in 8.0 mi Variable 2.3 mph - N/A   Overcast